[[{"header":{"parameterUnit":"m.s-1","parameterCategory":1,"la1":30.2991,"la2":30.254,"lo1":-89.0895,"lo2":-89.0444,"dy":0.0017,"dx":0.0017,"nx":28,"ny":28,"refTime":"2023-07-28T09:00:00:Z","depth":0,"parameterNumber":2,"parameterNumberName":"U-component_of_WINDS"},"data":[0,0,0,0,0,0,0,0,0,0,0,0,0,0,0,0,0,0,0,0,0,0,0,0,0,0,0,0,0,0,0,0,0,0,0,0,0,0,0,0,0,0,0,0,0,0,0,0,0,0,0,0,0,0,0,0,0,0,1.4091,1.4093,0,1.4218,1.4219,1.422,1.4242,1.4241,1.4239,1.4238,1.4372,1.4376,1.4381,0,0,0,0,0,0,0,0,0,0,0,0,0,1.3872,1.3876,1.4091,1.4093,1.4094,1.4217,1.4219,1.4221,1.4242,1.4241,1.4239,1.4238,1.437,1.4376,1.4381,0,0,0,0,0,0,0,0,0,0,0,0,0,1.398,1.3878,1.4091,1.412,1.4123,1.4217,1.4219,1.4221,1.4242,1.4241,1.4239,1.4237,1.4369,1.4375,1.4382,1.4457,0,0,1.4403,1.4406,0,0,0,0,0,0,0,0,1.3974,1.3988,1.4114,1.4118,1.4122,1.4212,1.4191,1.43,1.4243,1.4197,1.4238,1.4237,1.432,1.4331,1.4358,1.4463,1.4469,1.4403,1.4408,1.4411,1.4413,0,0,0,0,0,0,0,1.3966,1.3983,1.4141,1.4116,1.4121,1.4128,1.4141,1.4212,1.4267,1.4201,1.4203,1.4217,1.4322,1.4352,1.4362,1.4471,1.4403,1.4409,1.4414,1.4416,1.4645,1.4647,0,0,0,0,0,0,1.3953,1.3976,1.4137,1.4145,1.4042,1.4133,1.4148,1.4185,1.4266,1.4276,1.4219,1.4218,1.4341,1.4354,1.4366,1.446,1.4411,1.4417,1.4421,1.4643,1.4645,1.4647,0,0,0,0,0,0,1.3948,1.3967,1.4132,1.4061,1.4083,1.4138,1.418,1.4188,1.4218,1.4279,1.4289,1.4238,1.434,1.4357,1.4434,1.4465,1.442,1.4426,1.4641,1.4644,1.4646,1.4648,0,0,0,0,0,0,1.3942,1.3966,1.3994,1.4062,1.4086,1.4197,1.4182,1.4192,1.4229,1.4229,1.43,1.431,1.434,1.4424,1.4441,1.4474,1.4432,1.4638,1.4642,1.4645,1.4646,1.4651,1.4655,0,0,0,0,0,1.3934,1.399,1.3995,1.4014,1.4122,1.4198,1.4213,1.4244,1.4231,1.4261,1.43,1.4308,1.4459,1.4432,1.4451,1.4487,1.4636,1.4641,1.4645,1.4643,1.465,1.4655,0,0,0,0,0,0,1.3925,1.3999,1.4006,1.4085,1.4135,1.4202,1.424,1.425,1.4306,1.4304,1.4342,1.4358,1.4434,1.4468,1.4436,1.4564,1.4547,1.4555,1.4539,1.4545,1.455,1.4541,1.4437,0,0,0,0,0,1.3932,1.3986,1.4049,1.4112,1.4137,1.4184,1.4218,1.4238,1.4292,1.4314,1.4359,1.4413,1.4472,1.4511,1.4569,1.465,1.4667,1.4685,1.4689,1.4693,1.47,1.4747,1.4756,1.4662,1.4662,1.4662,0,0,1.3948,1.3995,1.4027,1.4112,1.4153,1.4209,1.4202,1.4262,1.4305,1.4324,1.4399,1.4434,1.4497,1.4577,1.4614,1.4607,1.473,1.4699,1.4701,1.4706,1.4752,1.4761,1.4769,1.4665,1.4664,1.4664,0,0,1.4005,1.4045,1.4103,1.4144,1.4206,1.4237,1.4251,1.4317,1.434,1.4417,1.4432,1.4484,1.4586,1.463,1.4665,1.4739,1.4749,1.4757,1.4783,1.4828,1.4835,1.4842,1.4869,1.4878,1.4764,1.4764,1.4764,0,1.4016,1.4101,1.4132,1.4191,1.4229,1.4247,1.4307,1.4346,1.4425,1.4451,1.4441,1.4569,1.4613,1.4703,1.4721,1.4749,1.4767,1.4749,1.4831,1.4838,1.4845,1.4872,1.4882,1.4764,1.4764,1.4764,1.4764,0,1.4113,1.4171,1.4211,1.4285,1.4327,1.4386,1.4427,1.4466,1.4483,1.4515,1.4593,1.4645,1.4714,1.4737,1.4755,1.4831,1.4825,1.4823,1.4807,1.4854,1.488,1.489,1.4765,1.4765,1.4765,1.4765,0,0,1.4168,1.4258,1.4272,1.4306,1.4376,1.4423,1.4483,1.455,1.4583,1.4637,1.4689,1.4775,1.4773,1.4814,1.4836,1.4875,1.4932,1.4869,1.4871,1.4879,1.5021,1.5022,1.5033,1.4938,1.494,1.4942,1.5016,0,1.4234,1.4341,1.4371,1.4462,1.4518,1.4536,1.4589,1.4639,1.467,1.4723,1.4759,1.4819,1.4812,1.4836,1.4876,1.4916,1.4961,1.4911,1.4989,1.4991,1.4973,1.5046,1.5048,1.5115,1.5026,1.5027,1.5029,0,1.4325,1.4379,1.4476,1.4539,1.4563,1.461,1.4674,1.4723,1.478,1.4801,1.4846,1.4864,1.493,1.4909,1.5001,1.4966,1.5,1.5025,1.5028,1.5037,1.5013,1.5058,1.5137,1.5147,1.5044,1.5043,1.5042,0,1.4357,1.4454,1.4524,1.4553,1.4628,1.4661,1.4694,1.4749,1.4788,1.4844,1.4869,1.4933,1.4968,1.5017,1.5053,1.5034,1.5141,1.5124,1.5161,1.5161,1.5184,1.5182,1.527,1.5204,1.5204,1.5204,1.5203,0,1.4428,1.4486,1.454,1.4583,1.465,1.4684,1.4749,1.4784,1.4833,1.4884,1.4904,1.4952,1.4996,1.5051,1.5079,1.5151,1.5167,1.5186,1.5193,1.5185,1.5182,1.5208,1.5204,1.5206,1.5206,1.5205,1.5205,0,1.4475,1.4512,1.4591,1.4655,1.4673,1.4719,1.4776,1.4819,1.4851,1.4916,1.4934,1.4985,1.505,1.509,1.5173,1.5192,1.5272,1.5277,1.5252,1.5255,1.5291,1.5287,1.5399,1.5416,1.5338,1.5339,1.5339,0,1.4518,1.4563,1.4632,1.4668,1.4701,1.4757,1.4796,1.4832,1.4872,1.494,1.4976,1.5042,1.5097,1.52,1.5246,1.531,1.5317,1.5352,1.5327,1.5317,1.5318,1.5315,1.532,1.5356,1.5357,1.5357,1.5358,0,1.459,1.4607,1.4661,1.4723,1.4768,1.4819,1.4869,1.4897,1.4942,1.4986,1.5052,1.5094,1.5178,1.5244,1.5312,1.5348,1.5361,1.5365,1.5377,1.5369,1.5353,1.5363,1.5264,1.5362,1.5362,1.5362,1.5361,1.5361,1.4637,1.4679,1.4734,1.4794,1.4836,1.4882,1.4926,1.4964,1.5019,1.509,1.5108,1.5177,1.5234,1.5326,1.5363,1.5419,1.5414,1.5432,1.5436,1.544,1.5441,1.5344,1.5431,1.5431,1.5431,1.5431,1.5431,0,1.4712,1.4748,1.4803,1.4872,1.492,1.4927,1.4983,1.5023,1.5083,1.5134,1.5187,1.5264,1.5328,1.5378,1.5444,1.5479,1.5487,1.5495,1.5493,1.5502,1.5441,1.5424,1.5488,1.5488,1.5488,1.5488,1.5488,1.5488,1.4756,1.4827,1.485,1.4941,1.4978,1.5045,1.5077,1.512,1.5161,1.5245,1.5298,1.5329,1.5381,1.5451,1.551,1.5523,1.5547,1.5554,1.5569,1.5512,1.5506,1.55,1.5484,1.5559,1.5559,1.5625,1.5625,1.5626]},{"header":{"parameterUnit":"m.s-1","parameterCategory":1,"la1":30.2991,"la2":30.254,"lo1":-89.0895,"lo2":-89.0444,"dy":0.0017,"dx":0.0017,"nx":28,"ny":28,"refTime":"2023-07-28T09:00:00:Z","depth":0,"parameterNumber":3,"parameterNumberName":"V-component_of_WINDS"},"data":[0,0,0,0,0,0,0,0,0,0,0,0,0,0,0,0,0,0,0,0,0,0,0,0,0,0,0,0,0,0,0,0,0,0,0,0,0,0,0,0,0,0,0,0,0,0,0,0,0,0,0,0,0,0,0,0,0,0,1.9128,1.9128,0,1.9124,1.9124,1.9124,1.9114,1.9113,1.9113,1.9113,1.9106,1.9106,1.9106,0,0,0,0,0,0,0,0,0,0,0,0,0,1.912,1.9121,1.9128,1.9128,1.9128,1.9124,1.9124,1.9124,1.9114,1.9113,1.9113,1.9113,1.9106,1.9106,1.9106,0,0,0,0,0,0,0,0,0,0,0,0,0,1.9121,1.9121,1.9128,1.9122,1.9122,1.9124,1.9124,1.9124,1.9114,1.9113,1.9113,1.9113,1.9106,1.9106,1.9106,1.9113,0,0,1.9107,1.9107,0,0,0,0,0,0,0,0,1.9121,1.9121,1.9123,1.9123,1.9122,1.9119,1.9119,1.9121,1.9114,1.9117,1.9113,1.9113,1.9111,1.911,1.911,1.9113,1.9113,1.9107,1.9107,1.9107,1.9107,0,0,0,0,0,0,0,1.9121,1.9121,1.9127,1.9123,1.9123,1.9118,1.9118,1.9119,1.9115,1.9116,1.9116,1.9115,1.911,1.911,1.911,1.9113,1.9107,1.9107,1.9107,1.9107,1.9117,1.9117,0,0,0,0,0,0,1.9122,1.9121,1.9127,1.9126,1.9121,1.9119,1.9118,1.912,1.9116,1.9114,1.9116,1.9115,1.911,1.911,1.911,1.9115,1.9107,1.9107,1.9107,1.9117,1.9117,1.9117,0,0,0,0,0,0,1.9122,1.9123,1.9127,1.9124,1.9124,1.9119,1.9122,1.9121,1.9121,1.9115,1.9114,1.9117,1.911,1.911,1.9112,1.9115,1.9107,1.9107,1.9116,1.9117,1.9117,1.9128,0,0,0,0,0,0,1.9122,1.9123,1.9127,1.9124,1.9124,1.9131,1.9122,1.9121,1.9121,1.912,1.9116,1.9115,1.911,1.9112,1.9112,1.9115,1.9107,1.9116,1.9117,1.9117,1.9127,1.9129,1.913,0,0,0,0,0,1.9122,1.9131,1.9127,1.9128,1.9129,1.9131,1.9131,1.9126,1.9121,1.9124,1.912,1.9115,1.9115,1.9112,1.9112,1.9115,1.9116,1.9116,1.9117,1.9127,1.9129,1.913,0,0,0,0,0,0,1.9134,1.913,1.9127,1.9135,1.9133,1.9129,1.9133,1.9128,1.9128,1.9127,1.9119,1.9118,1.9121,1.9118,1.9116,1.912,1.9114,1.9115,1.9122,1.9123,1.9124,1.9125,1.9107,0,0,0,0,0,1.9138,1.9141,1.9137,1.9144,1.9144,1.9138,1.9139,1.9135,1.9133,1.9132,1.9128,1.9125,1.9124,1.9123,1.9122,1.9127,1.9124,1.9128,1.913,1.9131,1.9131,1.913,1.9131,1.9119,1.9119,1.9119,0,0,1.9146,1.9144,1.9146,1.9147,1.9145,1.9146,1.9138,1.9141,1.9141,1.9132,1.9134,1.913,1.9126,1.9129,1.9129,1.9126,1.9134,1.9131,1.9132,1.9132,1.9131,1.9132,1.9133,1.9119,1.9119,1.9119,0,0,1.916,1.916,1.9165,1.9163,1.916,1.9156,1.9157,1.9153,1.9151,1.9152,1.9145,1.9144,1.9143,1.9139,1.9137,1.9146,1.9141,1.9146,1.9153,1.9152,1.9153,1.9154,1.9155,1.9156,1.9147,1.9147,1.9147,0,1.917,1.9173,1.9168,1.917,1.9169,1.9161,1.9164,1.9162,1.9159,1.9158,1.9155,1.9151,1.9148,1.9148,1.915,1.9149,1.9148,1.9147,1.9153,1.9154,1.9155,1.9156,1.9156,1.9147,1.9147,1.9147,1.9147,0,1.9184,1.9186,1.9189,1.9186,1.9186,1.9189,1.9182,1.9182,1.9177,1.9172,1.9172,1.9167,1.9164,1.9163,1.9159,1.9162,1.916,1.9155,1.9149,1.9156,1.9157,1.9158,1.9148,1.9148,1.9148,1.9148,0,0,1.9208,1.92,1.9201,1.9198,1.9193,1.9194,1.9195,1.9192,1.919,1.9187,1.9186,1.9184,1.9179,1.9176,1.9171,1.917,1.9175,1.9165,1.9165,1.9166,1.9175,1.9178,1.9178,1.9171,1.9171,1.9171,1.9174,0,1.922,1.9222,1.9216,1.9219,1.9219,1.921,1.921,1.9206,1.9201,1.9198,1.9192,1.919,1.9184,1.9182,1.9181,1.9175,1.9176,1.9174,1.9168,1.9168,1.9169,1.9179,1.9183,1.9187,1.9175,1.9175,1.9175,0,1.9235,1.9232,1.9236,1.9228,1.9227,1.9228,1.9223,1.9222,1.9215,1.9211,1.9207,1.92,1.9198,1.9192,1.9188,1.9186,1.9183,1.9179,1.9179,1.9177,1.9172,1.9177,1.9188,1.9188,1.9176,1.9176,1.9176,0,1.9249,1.9247,1.9248,1.9246,1.9237,1.9237,1.9233,1.9227,1.9224,1.9219,1.9217,1.9211,1.9208,1.9203,1.9194,1.9191,1.9189,1.9183,1.9184,1.9184,1.9184,1.9184,1.9194,1.9183,1.9183,1.9183,1.9183,0,1.9263,1.9265,1.9254,1.9254,1.9255,1.9246,1.9247,1.9242,1.9235,1.9233,1.9224,1.9222,1.921,1.9206,1.9198,1.9194,1.9193,1.9188,1.9186,1.9189,1.9189,1.9186,1.9185,1.9183,1.9183,1.9183,1.9183,0,1.9279,1.9272,1.9272,1.9263,1.9261,1.9262,1.9253,1.9252,1.9246,1.9242,1.9241,1.9231,1.9224,1.9215,1.9206,1.9201,1.9197,1.9194,1.92,1.9198,1.9199,1.9199,1.9207,1.9206,1.9197,1.9197,1.9197,0,1.9288,1.9289,1.928,1.9278,1.9275,1.9272,1.9269,1.9259,1.9256,1.9247,1.9246,1.924,1.9234,1.9224,1.9215,1.9207,1.9203,1.9206,1.9202,1.9204,1.9201,1.9201,1.92,1.9207,1.9208,1.9208,1.9208,0,1.9304,1.9299,1.9296,1.9291,1.9288,1.9283,1.9277,1.9276,1.9265,1.9261,1.9255,1.925,1.9241,1.9233,1.9224,1.9218,1.921,1.9209,1.9209,1.9211,1.9213,1.921,1.9201,1.9209,1.9209,1.9209,1.9209,1.9209,1.9315,1.9315,1.9308,1.9303,1.9298,1.9293,1.929,1.9283,1.9278,1.927,1.9264,1.9258,1.9248,1.9235,1.9229,1.9222,1.9219,1.9219,1.9219,1.9219,1.9219,1.9215,1.9221,1.9221,1.9221,1.922,1.922,0,1.9329,1.9323,1.932,1.9312,1.9308,1.9302,1.9295,1.9291,1.9286,1.9278,1.9272,1.9264,1.9256,1.9245,1.9236,1.9232,1.9228,1.923,1.923,1.9228,1.9223,1.9224,1.9233,1.9233,1.9233,1.9233,1.9233,1.9233,1.9335,1.9333,1.9328,1.9322,1.9316,1.9311,1.9307,1.9301,1.9294,1.9285,1.9279,1.9272,1.9262,1.9252,1.9243,1.924,1.9236,1.9239,1.9234,1.923,1.9229,1.9227,1.9228,1.9238,1.9238,1.924,1.924,1.924]}]]